FLOCK 4S-28 (47514 NORAD) Tracking and Keplerian Element Data

This shows tracking and keplerian element data for the satellite.

Feedback or suggestion? Click here.




ElementValue
Catalog47514
NameFLOCK 4S-28
Epoch Orbit1294
Epoch Day101.90427112
Epoch Year2021
RAAN164.1668
Inclination97.4924
Eccentricity0.0008072
Argument of Perigee351.1076
Mean Anonmoly9.001
Mean Motion15.12031727
Decay Rate2.03E-05
L11 47514U 21006DE 21101.90427112 .00002030 00000-0 12181-3 0 9992
L22 47514 97.4924 164.1668 0008072 351.1076 9.0010 15.12031727 12945

Live tracking and technical data element details for FLOCK 4S-28 (NORAD 47514). FLOCK 4S-28 can be tracked NOW for your location showing map with azimuth and elevation plus other details from your city location.

Track the satellite on the map from your city or location and see movement details for azimuth, elevation, latitude, longitude, range, height, and movement on the map or in text.







IsCatalogInMostPopularTable: catalog: 47514, numindb: 14
Update: records affected: 1



GetName: 47514 FLOCK 4S-28

Hit Count: updated at: Tue, 13 Apr 2021 04:28:24 GMT